Flag for Tajikistan Weather past 2 weeks in Dushanbe, Tajikistan

Now
88 °F

Passing clouds.


Feels Like: 84 °F
Forecast: 60 / 88 °F
Wind: 1 mph from North

Location: Dushanbe Airport

Current Time: Sep 22, 2014 at 5:49:35 PM

Latest Report: Sep 22, 2014 at 5:00 PM


Visibility: N/A

Pressure: 29.83 "Hg

Humidity: 13%

Dew point: 30 °F

Location of DushanbeLocation

Historic Weather in Dushanbe — Graph

°F

Dushanbe temperature yesterday

Maximum temperature yesterday: 86 °F (at 3:30 PM)
Minimum temperature yesterday: 55 °F (at 5:30 AM)
Average temperature yesterday: 70 °F

Past Weeks' High & Low Weather Summary

 TemperatureHumidityPressure
High97 °F (Sep 17, 2:30 PM)68% (Sep 19, 7:00 AM)30.15 "Hg (Sep 19, 7:00 AM)
Low55 °F (Sep 21, 5:30 AM)7% (Sep 17, 2:30 PM)29.65 "Hg (Sep 17, 3:30 PM)
Average73 °F32%29.91 "Hg
* Reported Sep 7 4:00 PM — Sep 22 4:30 PM, Dushanbe, Weather by CustomWeather, © 2014

Note: Actual official high and low records may vary slightly from our data, if they occured in-between our weather recording intervals... More about our weather records

Advertising

Dushanbe weather history for previous 24 hours

 ConditionsComfort  
Time TempWeatherWind HumidityBarometerVisibility
4:30 PM
Sep 22
88 °FPassing clouds.1 mph13%29.83 "HgN/A
4:00 PM90 °FPassing clouds.1 mph12%29.83 "HgN/A
3:30 PM88 °FPassing clouds.1 mph13%29.86 "HgN/A
3:00 PM88 °FPassing clouds.3 mph13%29.86 "HgN/A
2:30 PM88 °FPassing clouds.6 mph13%29.86 "HgN/A
2:00 PM88 °FSunny.3 mph13%29.86 "HgN/A
1:30 PM88 °FSunny.1 mph13%29.89 "HgN/A
1:00 PM86 °FSunny.1 mph13%29.89 "HgN/A
12:30 PM84 °FSunny.3 mph19%29.92 "HgN/A
12:00 PM82 °FSunny.1 mph19%29.92 "HgN/A
11:30 AM81 °FSunny.1 mph26%29.92 "HgN/A
11:00 AM79 °FSunny.3 mph26%29.95 "HgN/A
10:30 AM79 °FSunny.1 mph26%29.95 "Hg6 mi
10:00 AM73 °FPassing clouds.1 mph33%29.95 "Hg6 mi
9:30 AM72 °FSunny.1 mph36%29.95 "HgN/A
9:00 AM68 °FSunny.No wind38%29.95 "HgN/A
8:30 AM64 °FSunny.1 mph49%29.95 "Hg4 mi
8:00 AM63 °FSunny.1 mph49%29.95 "Hg4 mi
7:30 AM63 °FSunny.No wind49%29.95 "Hg5 mi
7:00 AM57 °FSunny.1 mph55%29.95 "Hg6 mi
6:30 AM57 °FSunny.1 mph55%29.92 "Hg6 mi
6:00 AM55 °FClear.1 mph59%29.92 "HgN/A
5:30 AM59 °FClear.1 mph51%29.92 "HgN/A
5:00 AM59 °FClear.1 mph48%29.92 "HgN/A
4:30 AM59 °FClear.1 mph48%29.92 "HgN/A
4:00 AM57 °FClear.1 mph55%29.92 "HgN/A
3:30 AM59 °FClear.1 mph51%29.92 "Hg6 mi
3:00 AM61 °FClear.No wind52%29.92 "HgN/A
2:30 AM61 °FClear.1 mph48%29.92 "HgN/A
2:00 AM61 °FClear.1 mph48%29.92 "HgN/A
1:30 AM63 °FClear.1 mph42%29.92 "HgN/A
1:00 AM61 °FClear.No wind48%29.92 "Hg6 mi
12:30 AM63 °FClear.1 mph45%29.92 "Hg6 mi
12:00 AM64 °FClear.No wind43%29.92 "Hg6 mi
11:30 PM
Sep 21
64 °FClear.No wind46%29.92 "Hg5 mi
11:00 PM66 °FClear.1 mph40%29.92 "Hg5 mi
10:30 PM63 °FClear.3 mph45%29.92 "Hg4 mi
10:00 PM66 °FClear.1 mph40%29.92 "Hg4 mi
9:30 PM66 °FClear.1 mph40%29.92 "Hg4 mi
9:00 PM70 °FClear.1 mph33%29.92 "Hg4 mi
8:30 PM70 °FClear.1 mph33%29.92 "Hg4 mi
8:00 PM70 °FClear.1 mph31%29.89 "Hg4 mi
7:30 PM72 °FClear.3 mph31%29.89 "Hg4 mi
7:00 PM75 °FClear.1 mph25%29.89 "Hg4 mi
6:30 PM77 °FClear.1 mph28%29.89 "Hg4 mi
6:00 PM82 °FSunny.1 mph17%29.89 "HgN/A
5:30 PM82 °FSunny.1 mph17%29.86 "HgN/A
5:00 PM84 °FSunny.3 mph14%29.86 "HgN/A
Weather by CustomWeather, © 2014

See weather overviewHow to use our weather pages